Location: Finnegan
(51.1333°N, 112.0833°W)
Time: 23:09:54
(UTC+00:00)

Envisat - Visible Passes

Search period start: 02 December 2021 00:00
Search period end: 12 December 2021 00:00
Orbit: 764 x 766 km, 98.2° (Epoch: 02 December)

Date Brightness Start Highest point End Pass type
(mag) Time Alt. Az. Time Alt. Az. Time Alt. Az.
02 Dec 4.7 11:48:18 10° NNE 11:52:50 31° E 11:57:19 10° SSE visible
02 Dec 3.3 13:27:10 10° N 13:32:00 44° WNW 13:36:47 10° SW visible
03 Dec 5.8 00:48:28 10° SW 00:52:11 20° W 00:55:57 10° NW visible
03 Dec 5.7 11:12:26 10° NE 11:15:33 16° E 11:18:38 10° SE visible
03 Dec 2.9 12:50:07 10° NNE 12:55:15 84° WNW 13:00:20 10° SSW visible
03 Dec 4.4 14:30:26 10° NNW 14:33:32 17° NW 14:36:39 10° W visible
04 Dec 4.6 00:10:15 10° SSW 00:14:59 39° W 00:19:46 10° NNW visible
04 Dec 3.8 12:13:21 10° NNE 12:18:18 50° E 12:23:14 10° S visible
04 Dec 3.8 13:52:46 10° N 13:57:06 29° WNW 14:01:25 10° WSW visible
05 Dec 6.1 01:15:44 10° WSW 01:17:52 12° W 01:20:00 10° WNW visible
05 Dec 5.0 11:36:57 10° NE 11:41:10 26° E 11:45:21 10° SSE visible
05 Dec 3.1 13:15:32 10° N 13:20:29 53° WNW 13:25:25 10° SW visible
06 Dec 5.5 00:36:22 10° SSW 00:40:30 25° W 00:44:41 10° NW visible
06 Dec 5.9 11:01:32 10° ENE 11:03:49 13° E 11:06:06 10° ESE visible
06 Dec 3.0 12:38:34 10° NNE 12:43:41 80° ESE 12:48:46 10° SSW visible
06 Dec 4.2 14:18:34 10° NNW 14:22:09 20° WNW 14:25:42 10° W visible
06 Dec 4.2 23:58:27 10° S 00:03:21 48° W 00:08:18 10° NNW visible
07 Dec 4.2 12:01:52 10° NNE 12:06:41 40° E 12:11:27 10° SSE visible
07 Dec 3.6 13:41:04 10° N 13:45:39 34° WNW 13:50:12 10° SW visible
08 Dec 5.9 01:03:08 10° WSW 01:06:08 16° W 01:09:09 10° NW visible
08 Dec 5.3 11:25:39 10° NE 11:29:29 21° E 11:33:17 10° SE visible
08 Dec 2.9 13:03:55 10° N 13:08:58 65° WNW 13:13:59 10° SSW visible
09 Dec 5.1 00:24:23 10° SSW 00:28:51 30° W 00:33:19 10° NNW visible
09 Dec 6.1 10:51:32 10° ENE 10:52:04 10° E 10:52:36 10° E visible
09 Dec 3.3 12:27:01 10° NNE 12:32:06 65° ESE 12:37:09 10° S visible
09 Dec 4.0 14:06:46 10° N 14:10:43 23° WNW 14:14:39 10° WSW visible
10 Dec 4.6 11:50:27 10° NNE 11:55:03 33° E 11:59:36 10° SSE visible
10 Dec 3.3 13:29:23 10° N 13:34:09 41° WNW 13:38:54 10° SW visible
11 Dec 5.8 00:50:50 10° SW 00:54:26 19° W 00:58:02 10° NW visible
11 Dec 5.6 11:14:28 10° NE 11:17:47 17° E 11:21:04 10° SE visible
11 Dec 2.8 12:52:19 10° NNE 12:57:25 80° WNW 13:02:30 10° SSW visible
11 Dec 4.5 14:32:43 10° NNW 14:35:41 16° NW 14:38:38 10° W visible
